Waarnemingen

Advertentie
Mijn weer
Lahr, Duitsland (10805): temperatuur & dauwpunt: 16.02.2017 11:00:00 - 22.02.2017 11:00:00 (CET)Lahr, Duitsland (10805): temperatuur 5cm & temperatuur -5cm: 16.02.2017 11:00:00 - 22.02.2017 11:00:00 (CET)Lahr, Duitsland (10805): temperatuur -20cm & temperatuur -100cm: 16.02.2017 11:00:00 - 22.02.2017 11:00:00 (CET)Lahr, Duitsland (10805): windsnelheid & windstoten: 16.02.2017 11:00:00 - 22.02.2017 11:00:00 (CET)Lahr, Duitsland (10805): windrichting: 16.02.2017 11:00:00 - 22.02.2017 11:00:00 (CET)Lahr, Duitsland (10805): luchtdruk: 16.02.2017 11:00:00 - 22.02.2017 11:00:00 (CET)Lahr, Duitsland (10805): zicht: 16.02.2017 11:00:00 - 22.02.2017 11:00:00 (CET)Lahr, Duitsland (10805): Zonneschijnduur: 16.02.2017 11:00:00 - 22.02.2017 11:00:00 (CET)Lahr, Duitsland (10805): neerslag: 16.02.2017 11:00:00 - 22.02.2017 11:00:00 (CET)
Datum & Tijd tt [°C] td [°C] tt 5cm [°C] tt -5cm [°C] tt -20cm [°C] tt -100cm [°C] ff [km/u] ff [kn] fx [km/u] fx [kn] dd ppp [hPa] vv [km] sd [min] rr [mm]
22.02.2017 11:00:00 11,0 5,9 10,7 8,4 7,7 5,7 19 10 40 21 W 1017,9 70 0 0,0
22.02.2017 10:00:00 11,1 5,0 10,4 8,3 7,7 5,7 30 16 41 22 ZW 1017,9 70 0 0,0
22.02.2017 09:00:00 10,7 6,5 10,3 8,3 7,7 5,7 19 11 32 18 ZW 1017,6 70 0 0,0
22.02.2017 08:00:00 10,4 7,0 9,9 8,3 7,8 5,7 18 10 34 18 ZZW 1017,3 50 0 0,0
22.02.2017 07:00:00 10,7 7,4 10,1 8,5 7,8 5,7 17 9 29 16 ZZW 1016,9 63 0 0,0
22.02.2017 06:00:00 10,6 8,0 10,1 8,6 7,8 5,7 14 7 25 13 ZW 1017,0 40 0 0,0
22.02.2017 05:00:00 10,5 8,4 10,0 8,6 7,8 5,7 15 8 29 15 ZZW 1017,5 38 0 0,0
22.02.2017 04:00:00 10,5 8,8 10,0 8,7 7,8 5,6 21 11 32 17 ZZW 1017,7 14 0 0,0
22.02.2017 03:00:00 10,4 8,8 10,0 8,8 7,8 5,6 17 9 25 13 Z 1018,1 50 0 0,0
22.02.2017 02:00:00 10,5 9,0 10,1 8,8 7,9 5,6 16 9 23 13 Z 1018,9 35 0 0,0
22.02.2017 01:00:00 10,5 9,0 10,2 8,8 7,9 5,6 16 9 24 13 ZZW 1019,4 32 0 0,0
22.02.2017 00:00:00 10,5 9,0 10,1 8,8 7,9 5,6 16 9 24 13 Z 1019,6 34 0 0,0
21.02.2017 23:00:00 10,6 9,1 10,2 8,9 7,9 5,6 14 7 22 12 Z 1019,7 31 0 0,0
21.02.2017 22:00:00 10,5 9,1 9,7 8,9 8,0 5,6 16 9 24 13 Z 1019,8 38 0 0,0
21.02.2017 21:00:00 10,6 9,2 9,7 9,2 8,0 5,6 10 5 21 12 ZZW 1019,9 45 0 0,3
21.02.2017 20:00:00 11,1 9,4 10,7 9,5 8,0 5,6 16 9 22 12 ZZW 1020,0 62 0 0,0
21.02.2017 19:00:00 11,1 9,9 10,5 9,7 8,0 5,6 12 6 17 9 Z 1019,9 52 0 0,1
21.02.2017 18:00:00 11,8 9,7 10,6 10,0 7,9 5,6 13 7 30 16 ZW 1019,6 23 0 0,0
21.02.2017 17:00:00 12,6 9,0 11,9 10,5 7,8 5,6 20 11 30 16 WZW 1019,2 70 0 0,0
21.02.2017 16:00:00 13,2 8,7 12,9 10,9 7,6 5,6 19 10 31 17 WZW 1019,2 70 0 0,0
21.02.2017 15:00:00 13,1 8,8 13,0 11,2 7,4 5,5 19 10 32 17 WZW 1019,1 70 0 0,0
21.02.2017 14:00:00 13,2 8,7 13,4 11,0 7,2 5,5 21 11 33 18 ZW 1019,3 70 0 0,0
21.02.2017 13:00:00 12,7 8,6 12,8 10,6 6,9 5,5 23 13 36 20 ZW 1019,8 70 0 0,0
21.02.2017 12:00:00 12,5 8,5 12,8 10,8 6,6 5,5 24 13 33 18 ZW 1019,7 70 0 0,0
21.02.2017 11:00:00 11,2 8,5 11,8 9,0 6,5 5,5 19 10 32 17 ZZW 1020,0 70 0 0,0
21.02.2017 10:00:00 9,8 8,1 9,8 7,9 6,4 5,5 18 10 27 15 ZZW 1019,8 70 0 0,0
21.02.2017 09:00:00 9,4 7,8 8,9 7,5 6,4 5,5 17 9 27 15 ZZW 1019,8 66 0 0,0
21.02.2017 08:00:00 9,1 7,6 8,2 7,3 6,4 5,5 13 7 27 14 Z 1019,9 53 0 0,2
21.02.2017 07:00:00 9,1 7,4 8,7 7,2 6,4 5,5 18 10 32 17 Z 1019,5 10 0 0,0
21.02.2017 06:00:00 9,0 7,3 8,6 7,1 6,3 5,5 20 11 33 18 ZZW 1019,8 27 0 0,0
21.02.2017 05:00:00 8,9 7,1 8,0 7,0 6,3 5,5 20 11 32 17 Z 1019,8 25 0 0,1
21.02.2017 04:00:00 8,5 7,2 7,9 7,0 6,3 5,5 21 11 40 21 ZZW 1020,3 13 0 0,0
21.02.2017 03:00:00 8,7 6,6 8,4 6,9 6,3 5,5 21 12 33 18 ZZW 1020,9 12 0 0,0
21.02.2017 02:00:00 8,7 6,3 8,3 6,8 6,3 5,5 21 12 35 19 ZZW 1021,4 12 0 0,0
21.02.2017 01:00:00 8,8 6,0 8,5 6,8 6,3 5,5 21 11 30 16 ZZW 1021,6 12 0 0,0
21.02.2017 00:00:00 8,7 5,8 8,3 6,8 6,3 5,5 19 10 33 18 ZZW 1021,9 12 0 0,0
20.02.2017 23:00:00 8,5 6,0 8,1 6,8 6,4 5,5 22 12 39 21 ZZW 1022,2 11 0 0,0
20.02.2017 22:00:00 8,3 6,1 8,0 6,8 6,4 5,5 22 12 34 19 ZZW 1022,1 11 0 0,0
20.02.2017 21:00:00 8,1 6,2 7,4 6,8 6,4 5,4 18 10 32 17 Z 1022,4 9 0 0,0
20.02.2017 20:00:00 8,3 5,8 7,1 6,9 6,5 5,4 19 11 30 16 Z 1022,2 9 0 0,3
20.02.2017 19:00:00 8,9 5,5 7,5 7,1 6,5 5,4 19 10 31 17 Z 1022,3 10 0 0,1
20.02.2017 18:00:00 9,4 5,1 8,9 7,4 6,5 5,4 22 12 30 16 ZZW 1022,2 16 0 0,0
20.02.2017 17:00:00 9,9 5,0 9,4 7,9 6,4 5,4 22 12 33 18 ZZW 1022,4 18 0 0,0
20.02.2017 16:00:00 10,0 5,2 9,8 8,3 6,3 5,4 20 11 31 17 ZZW 1022,6 18 0 0,0
20.02.2017 15:00:00 10,4 5,4 10,6 8,8 6,1 5,4 23 12 37 20 ZZW 1022,7 22 0 0,0
20.02.2017 14:00:00 9,8 5,0 9,9 9,3 5,8 5,4 23 13 34 19 Z 1023,3 17 0 0,0
20.02.2017 13:00:00 9,9 5,2 10,8 9,6 5,5 5,4 22 12 34 18 Z 1024,1 10 0 0,0
20.02.2017 12:00:00 9,3 5,1 10,3 8,0 5,3 5,4 18 10 27 15 Z 1025,4 10 0 0,0
20.02.2017 11:00:00 8,0 4,5 8,5 6,8 5,2 5,4 17 9 24 13 ZZW 1025,7 13 0 0,0
20.02.2017 10:00:00 7,3 4,3 7,5 5,6 5,1 5,4 16 8 23 13 ZZW 1025,5 12 0 0,0
20.02.2017 09:00:00 6,4 3,8 6,1 4,8 5,2 5,4 13 7 21 12 Z 1025,3 10 0 0,0
20.02.2017 08:00:00 6,3 3,0 5,7 4,5 5,2 5,4 13 7 22 12 Z 1025,0 11 0 0,0
20.02.2017 07:00:00 6,1 2,7 5,6 4,6 5,3 5,4 15 8 21 11 Z 1024,8 11 0 0,0
20.02.2017 06:00:00 6,2 2,5 5,6 4,6 5,4 5,4 7 4 19 10 ZZW 1024,8 13 0 0,0
20.02.2017 05:00:00 6,5 2,4 5,9 4,8 5,4 5,4 14 7 22 12 ZZW 1024,8 15 0 0,0
20.02.2017 04:00:00 6,2 2,6 5,7 4,9 5,5 5,4 9 5 18 10 ZW 1024,8 15 0 0,0
20.02.2017 03:00:00 7,0 2,5 6,5 5,0 5,5 5,4 14 8 19 11 Z 1024,8 17 0 0,0
20.02.2017 02:00:00 7,3 2,5 6,7 5,1 5,6 5,4 13 7 21 11 ZZW 1025,2 17 0 0,0
20.02.2017 01:00:00 7,5 2,4 6,8 5,2 5,7 5,3 9 5 13 7 ZZW 1025,3 18 0 0,0
20.02.2017 00:00:00 7,5 2,9 6,8 5,3 5,7 5,3 10 6 14 7 Z 1025,3 17 0 0,0
19.02.2017 23:00:00 6,9 3,1 5,7 5,4 5,8 5,3 5 3 9 5 ZZW 1025,1 16 0 0,0
19.02.2017 22:00:00 6,9 3,1 5,1 5,6 5,9 5,3 3 2 8 4 ZW 1024,7 13 0 0,0
19.02.2017 21:00:00 8,1 3,3 7,1 5,8 6,0 5,3 4 2 14 8 Z 1024,4 16 0 0,0
19.02.2017 20:00:00 8,6 2,3 7,0 6,0 6,1 5,3 11 6 15 8 WZW 1023,9 23 0 0,0
19.02.2017 19:00:00 7,9 3,3 6,3 6,3 6,1 5,3 8 4 14 7 W 1023,8 17 0 0,0
19.02.2017 18:00:00 10,0 2,9 8,5 7,9 5,9 5,3 10 5 24 13 ZZW 1023,1 23 24 0,0
19.02.2017 17:00:00 11,0 2,2 10,6 9,4 5,6 5,3 16 8 24 13 Z 1022,8 27 54 0,0
19.02.2017 16:00:00 11,2 2,4 12,2 10,2 5,2 5,3 16 9 24 13 ZZW 1023,3 19 57 0,0
19.02.2017 15:00:00 10,0 2,8 10,1 9,5 4,7 5,3 11 6 18 10 ZZW 1023,7 18 10 0,0
19.02.2017 14:00:00 9,4 2,3 11,3 10,0 4,2 5,3 6 4 19 11 ZW 1024,9 18 10 0,0
19.02.2017 13:00:00 8,9 3,2 10,6 9,2 3,6 5,3 13 7 19 10 Z 1025,3 13 40 0,0
19.02.2017 12:00:00 7,6 2,2 10,6 6,7 3,4 5,2 5 3 10 5 Z 1026,3 11 60 0,0
19.02.2017 11:00:00 5,1 1,6 7,3 1,1 3,5 5,2 6 3 13 7 ZZW 1026,8 7 60 0,0
19.02.2017 10:00:00 3,8 0,6 3,3 0,6 3,6 5,2 3 2 8 4 ZZO 1026,9 9 60 0,0
19.02.2017 09:00:00 1,6 -0,1 0,1 0,6 3,8 5,2 9 5 12 6 ZZO 1026,4 8 56 0,0
19.02.2017 08:00:00 -1,7 -2,3 -3,4 0,7 3,9 5,2 8 4 12 6 ZZW 1026,4 9 0 0,0
19.02.2017 07:00:00 -2,2 -2,2 -4,1 0,7 4,1 5,2 6 3 8 4 ZZO 1026,1 6 0 0,0
19.02.2017 06:00:00 -2,1 -2,4 -3,7 0,8 4,3 5,2 1 1 7 4 ZO 1026,4 6 0 0,0
19.02.2017 05:00:00 -2,4 -2,8 -3,9 0,9 4,5 5,2 4 2 9 5 WZW 1026,6 7 0 0,0
19.02.2017 04:00:00 0,1 -0,3 -1,6 1,0 4,8 5,2 8 4 11 6 Z 1026,2 9 0 0,0
19.02.2017 03:00:00 -1,4 -1,7 -2,9 1,1 5,1 5,1 8 4 10 5 ZW 1026,6 8 0 0,0
19.02.2017 02:00:00 -1,1 -1,2 -3,0 1,1 5,4 5,1 3 2 6 3 ZW 1026,8 8 0 0,0
19.02.2017 01:00:00 -0,2 -0,3 -1,9 1,5 5,7 5,1 6 3 12 6 Z 1027,0 7 0 0,0
19.02.2017 00:00:00 1,8 0,7 -0,3 2,3 6,1 5,1 10 6 20 11 ZO 1026,5 11 0 0,0
18.02.2017 23:00:00 4,0 1,7 1,8 3,1 6,4 5,1 11 6 18 10 OZO 1026,5 13 0 0,0
18.02.2017 22:00:00 4,7 2,6 2,6 3,2 6,8 5,1 12 7 16 8 ZO 1026,5 14 0 0,0
18.02.2017 21:00:00 3,4 2,7 -0,3 4,0 7,1 5,1 2 1 8 4 Z 1026,4 7 0 0,0
18.02.2017 20:00:00 3,6 2,5 1,1 5,1 7,4 5,1 0 0 7 4 N 1026,3 10 0 0,0
18.02.2017 19:00:00 5,7 3,5 2,0 6,5 7,5 5,1 4 2 13 7 ONO 1026,3 12 0 0,0
18.02.2017 18:00:00 7,6 3,3 5,7 8,7 7,5 5,1 9 5 20 11 NNO 1026,2 10 31 0,0
18.02.2017 17:00:00 9,7 3,4 9,9 10,2 7,4 5,0 17 9 21 11 NNO 1025,8 24 40 0,0
18.02.2017 16:00:00 10,2 3,3 11,7 11,8 7,0 5,0 15 8 22 12 NNO 1025,7 20 46 0,0
18.02.2017 15:00:00 10,3 2,8 13,0 12,6 6,6 5,0 13 7 21 12 NNO 1025,8 21 59 0,0
18.02.2017 14:00:00 9,9 3,2 12,3 12,4 6,1 5,0 13 7 20 11 NNO 1026,3 16 40 0,0
18.02.2017 13:00:00 9,3 4,4 11,2 12,5 5,6 5,0 9 5 16 8 NNO 1027,1 15 50 0,0
18.02.2017 12:00:00 8,4 5,2 11,2 10,6 5,2 5,0 10 5 16 9 N 1027,8 13 60 0,0
18.02.2017 11:00:00 6,5 4,5 9,4 8,3 5,0 5,0 7 4 10 5 N 1028,3 8 60 0,0
18.02.2017 10:00:00 4,8 4,0 6,9 4,7 5,1 5,0 4 2 10 5 W 1028,3 9 46 0,0
18.02.2017 09:00:00 2,6 2,6 3,5 3,3 5,3 4,9 3 2 4 2 W 1028,5 0,3 3 0,0
18.02.2017 08:00:00 0,7 0,7 -0,4 2,8 5,5 4,9 4 2 7 4 ONO 1028,4 0,1 0 0,0
18.02.2017 07:00:00 3,3 3,3 0,8 3,9 5,6 4,9 3 2 6 3 O 1028,1 0,2 0 0,0
18.02.2017 06:00:00 4,0 4,0 3,6 4,4 5,7 4,9 2 1 8 4 ZZO 1028,0 1,6 0 0,0
18.02.2017 05:00:00 3,8 3,8 3,5 4,2 5,9 4,9 4 2 6 3 WZW 1027,8 0,4 0 0,0
18.02.2017 04:00:00 4,5 4,5 2,9 4,8 6,0 4,9 2 1 4 2 NO 1027,7 0,5 0 0,0
18.02.2017 03:00:00 4,9 4,9 2,6 5,3 6,1 4,9 1 1 5 3 O 1028,1 3,4 0 0,0
18.02.2017 02:00:00 5,9 5,5 5,3 5,8 6,2 4,9 3 2 6 3 O 1028,4 8 0 0,0
18.02.2017 01:00:00 5,9 5,6 5,5 5,8 6,3 4,9 5 3 7 4 WZW 1028,7 10 0 0,0
18.02.2017 00:00:00 6,4 5,4 5,9 6,0 6,5 4,9 5 3 9 5 ZZO 1028,5 17 0 0,0
17.02.2017 23:00:00 6,4 5,1 5,7 6,3 6,6 4,8 6 3 9 5 Z 1028,7 20 0 0,0
17.02.2017 22:00:00 6,9 5,0 6,4 6,6 6,7 4,8 6 4 12 7 ZW 1028,5 31 0 0,0
17.02.2017 21:00:00 7,2 4,9 6,7 6,9 6,8 4,8 6 4 14 8 WZW 1028,3 34 0 0,0
17.02.2017 20:00:00 7,9 5,2 7,3 7,3 6,8 4,8 9 5 13 7 ZZW 1028,1 31 0 0,0
17.02.2017 19:00:00 8,2 5,3 7,2 7,7 6,9 4,8 4 2 10 6 Z 1027,9 37 0 0,0
17.02.2017 18:00:00 8,3 5,8 7,9 8,5 6,8 4,8 7 4 13 7 Z 1027,3 26 8 0,0
17.02.2017 17:00:00 9,4 5,8 10,2 9,1 6,7 4,8 6 4 18 10 ZO 1027,3 46 25 0,0
17.02.2017 16:00:00 8,8 5,1 8,4 10,0 6,4 4,8 8 4 18 10 Z 1027,4 10 16 0,1
17.02.2017 15:00:00 10,0 5,3 12,0 10,4 6,1 4,8 11 6 19 10 Z 1027,5 53 28 0,0
17.02.2017 14:00:00 9,7 5,7 11,6 10,6 5,8 4,8 13 7 23 12 Z 1027,8 41 37 0,0
17.02.2017 13:00:00 8,4 5,2 10,0 8,9 5,6 4,8 16 9 23 13 Z 1028,2 58 24 0,0
17.02.2017 12:00:00 7,2 4,9 7,6 7,9 5,5 4,8 13 7 23 12 ZZW 1028,6 59 16 0,0
17.02.2017 11:00:00 6,4 5,0 6,4 6,2 5,5 4,7 14 8 19 10 Z 1028,8 57 0 0,5
17.02.2017 10:00:00 6,0 5,5 5,8 5,8 5,6 4,7 9 5 16 9 Z 1028,5 4,9 0 1,3
17.02.2017 09:00:00 6,0 5,3 5,6 5,7 5,6 4,7 8 5 12 7 ZO 1028,6 4,4 0 2,2
17.02.2017 08:00:00 6,0 5,7 5,7 5,8 5,6 4,7 5 3 23 13 NO 1028,4 5 0 2,4
17.02.2017 07:00:00 6,7 5,7 6,0 6,1 5,7 4,7 14 8 29 16 N 1028,0 10 0 2,7
17.02.2017 06:00:00 6,5 6,5 6,2 6,0 5,7 4,7 5 3 8 4 N 1027,6 0,2 0 0,1
17.02.2017 05:00:00 7,2 7,2 6,3 6,2 5,8 4,7 1 1 9 5 WNW 1027,6 1,1 0 0,2
17.02.2017 04:00:00 7,4 7,4 7,0 6,3 5,8 4,7 5 3 11 6 W 1027,9 1,1 0 0,8
17.02.2017 03:00:00 7,2 7,2 6,8 6,2 5,9 4,7 5 3 7 4 Z 1028,3 2,1 0 0,0
17.02.2017 02:00:00 7,9 7,9 7,1 6,7 5,9 4,7 4 2 8 4 N 1028,3 3,4 0 0,0
17.02.2017 01:00:00 8,2 7,6 7,5 6,8 5,9 4,7 3 2 14 8 ONO 1028,5 8 0 1,6
17.02.2017 00:00:00 8,2 7,5 7,5 6,7 6,0 4,7 5 3 10 5 ONO 1028,8 4,2 0 0,9
16.02.2017 23:00:00 9,0 7,3 7,2 6,7 6,1 4,7 3 2 12 6 NO 1028,9 8 0 0,0
16.02.2017 22:00:00 9,3 7,4 6,8 7,0 6,2 4,7 7 4 13 7 NO 1029,2 9 0 0,0
16.02.2017 21:00:00 9,7 7,0 8,5 7,5 6,2 4,7 10 5 14 8 NO 1029,3 10 0 0,0
16.02.2017 20:00:00 10,4 6,8 8,9 8,0 6,3 4,7 9 5 16 9 NNO 1029,2 12 0 0,0
16.02.2017 19:00:00 10,1 6,1 8,8 8,7 6,2 4,7 6 3 16 8 NW 1029,0 17 0 0,0
16.02.2017 18:00:00 12,6 6,1 9,5 9,5 6,0 4,7 5 3 13 7 Z 1028,6 20 0 0,0
16.02.2017 17:00:00 15,1 6,5 13,8 11,0 5,6 4,7 7 4 15 8 ZZW 1028,4 25 34 0,0
16.02.2017 16:00:00 16,0 6,2 16,2 12,5 5,1 4,7 11 6 20 11 ZZW 1028,7 23 60 0,0
16.02.2017 15:00:00 15,8 5,2 16,5 13,1 4,4 4,7 12 6 19 10 ZZW 1029,4 24 60 0,0
16.02.2017 14:00:00 15,2 4,7 16,4 12,6 3,7 4,7 14 8 21 11 ZZW 1030,4 23 60 0,0
16.02.2017 13:00:00 13,7 4,4 15,5 11,5 3,0 4,7 11 6 18 10 ZZW 1031,3 25 60 0,0
16.02.2017 12:00:00 11,6 3,9 13,6 8,9 2,5 4,7 5 3 9 5 Z 1032,6 18 60 0,0
16.02.2017 11:00:00 8,1 3,2 10,3 5,0 2,3 4,7 6 4 12 7 ZZW 1033,2 15 60 0,0

tt = temperatuur
td = dauwpunt
tt 5cm = temperatuur 5cm
tt -5cm = temperatuur -5cm
tt -20cm = temperatuur -20cm
tt -100cm = temperatuur -100cm
ff = windsnelheid
fx = windstoten
dd = windrichting
ppp = luchtdruk
vv = zicht
sd = Zonneschijnduur
rr = neerslag

Weerstations in de omgeving